Wind_Speed
15 13 13 14 13 13 13 13 11 8 10 13 14 14 14 17 19 21 20 20 20 19 18 17 16 13 12 9 5 5 6 8 10 11 14 15 16 18 17 17 16 15 13 12
16 14 15 15 15 14 13 13 12 10 11 14 16 16 17 17 18 19 19 18 17 17 17 17 15 13 11 8 5 4 5 6 8 10 13 14 16 18 18 18 17 15 14 13
16 16 18 17 17 16 14 13 12 12 13 15 18 18 18 17 16 17 17 16 16 15 15 15 14 13 11 8 5 5 4 6 7 8 10 13 16 18 18 17 17 16 15 14
17 17 18 18 17 17 14 12 14 15 16 17 18 19 17 17 16 16 16 15 14 14 14 13 13 12 11 8 4 3 4 6 7 9 10 13 16 17 18 18 17 16 16 15
16 18 18 18 17 16 14 14 16 17 18 18 18 19 17 16 17 16 15 13 11 12 12 12 12 12 10 8 5 3 4 5 7 9 11 14 15 17 18 18 17 17 16 16
17 18 18 17 17 15 14 15 16 17 17 17 16 17 16 15 16 16 14 11 10 11 11 12 12 11 10 7 3 2 3 4 6 9 11 14 15 16 18 18 17 17 17 16
18 18 17 16 15 14 14 15 16 17 17 14 14 15 15 16 16 15 13 9 9 9 10 11 12 11 10 7 3 2 2 4 6 8 11 13 15 16 18 19 18 18 18 17
18 16 16 16 14 13 13 15 17 18 16 14 14 14 13 14 15 15 11 7 7 9 9 11 12 11 10 7 4 2 2 4 6 8 10 12 14 16 17 18 18 18 18 18
18 17 18 18 15 15 14 15 16 18 18 17 16 15 15 15 16 14 11 7 6 8 9 10 11 10 9 7 5 3 3 4 7 8 10 11 14 16 16 17 17 18 18 18
17 18 19 18 17 16 14 12 15 18 19 19 17 16 16 17 16 15 11 10 8 8 9 10 9 10 10 8 6 4 3 4 6 8 9 10 12 15 16 16 17 18 18 17
19 19 19 20 17 16 15 15 17 18 19 20 19 18 17 17 17 15 14 11 8 9 11 10 9 9 10 9 6 4 4 4 6 7 8 10 12 12 13 15 17 18 18 18
21 21 21 22 21 20 19 19 19 20 20 20 21 20 18 19 18 17 15 13 12 12 12 11 10 10 10 9 8 5 5 5 6 6 8 10 11 12 12 13 15 16 17 17
27 27 26 25 25 25 23 22 22 21 21 22 23 23 21 21 21 18 17 16 14 12 11 11 11 11 11 10 9 7 5 5 6 7 8 8 10 11 12 13 14 15 16 16
33 32 31 29 28 28 27 26 26 25 25 25 25 26 26 23 22 20 18 17 16 14 12 13 14 13 12 11 10 9 7 7 7 7 7 9 10 11 12 13 14 13 14 16
39 37 35 33 32 32 31 30 29 29 29 29 27 27 26 25 25 24 22 21 19 17 16 16 16 15 14 13 12 10 9 8 7 7 8 8 10 11 13 13 13 13 13 15
43 42 40 37 35 34 34 33 33 34 32 31 31 30 28 27 27 26 25 24 22 21 20 19 20 19 17 14 12 10 10 9 8 8 9 9 10 11 11 12 12 13 14 15
45 44 42 40 37 35 35 35 37 37 36 34 33 31 31 30 28 27 27 27 26 25 24 23 22 20 17 16 14 12 11 11 11 10 11 11 11 11 12 13 14 14 15 15
45 44 42 40 38 38 35 37 38 38 38 37 34 33 32 31 30 30 30 29 29 29 28 27 24 22 19 18 17 16 15 15 14 13 12 12 13 13 14 15 16 17 16 17
45 44 42 40 38 36 35 37 39 40 40 39 37 35 33 32 33 32 32 32 31 31 30 28 27 25 22 20 19 18 18 18 17 16 16 16 16 16 16 17 18 18 19 20
43 43 42 41 39 37 34 34 36 38 40 38 36 36 35 35 35 34 34 33 32 31 30 29 27 24 23 22 21 21 20 20 20 19 18 18 17 17 18 18 19 20 21 22
39 40 39 38 38 36 33 31 33 36 36 36 36 36 36 36 36 35 34 34 33 32 31 30 28 25 25 24 24 23 24 23 22 22 21 21 20 19 20 20 21 22 23 24
37 37 37 37 36 36 32 32 33 34 34 35 35 36 36 36 35 35 34 33 32 31 30 29 28 27 26 25 25 25 25 24 24 23 23 23 22 22 22 22 23 24 25 27
35 36 36 35 35 34 32 32 32 32 32 32 32 33 34 33 33 33 32 31 30 30 29 29 28 27 27 27 26 26 25 25 25 25 25 25 24 24 24 25 26 25 26 28
34 35 35 34 34 33 32 32 32 32 31 31 31 31 31 30 30 30 30 30 29 29 29 29 29 28 27 27 27 27 26 26 26 26 26 25 26 26 25 26 26 26 27 29
34 35 34 33 33 32 30 30 30 30 30 30 30 30 31 29 28 28 28 28 28 27 27 27 27 27 26 26 26 27 27 26 26 26 26 26 27 26 26 26 27 27 27 27
31 32 32 31 29 29 28 28 28 29 29 29 28 27 27 27 26 26 26 26 26 26 25 25 25 25 25 25 26 26 26 25 25 26 27 27 26 26 27 27 26 27 28 28
Wind_Direction
273 276 274 269 266 264 266 270 277 288 294 294 295 297 306 312 319 330 337 341 347 350 350 349 345 343 336 323 290 258 251 224 213 210 206 205 206 205 205 204 204 207 208 211
270 271 265 265 263 261 263 270 273 273 278 281 285 289 297 302 314 323 333 338 346 350 350 351 349 346 341 333 313 270 246 217 209 209 207 206 204 203 204 205 207 208 208 209
265 262 264 264 262 259 260 270 272 270 273 268 277 284 292 297 305 313 323 335 344 349 351 352 351 349 345 335 304 266 238 222 221 214 209 205 203 204 206 207 209 209 208 209
262 261 263 263 263 263 263 267 273 266 264 264 270 280 286 291 294 300 314 328 337 344 350 351 350 348 345 341 320 253 238 232 228 218 207 202 204 204 204 207 207 208 208 211
259 258 261 263 259 258 262 267 271 268 265 265 268 275 281 288 290 294 309 320 333 343 348 352 352 349 347 344 330 271 246 234 225 214 204 198 201 202 204 206 208 210 209 211
254 255 259 262 259 256 259 264 266 265 265 266 270 274 282 285 291 295 306 312 329 342 350 354 357 354 351 346 331 277 234 223 217 213 204 198 201 204 206 208 211 212 212 214
248 251 255 255 257 258 258 263 269 265 262 263 270 277 287 288 290 297 303 312 326 337 349 354 356 355 354 353 339 319 254 212 206 203 203 203 204 206 207 210 214 215 214 216
248 246 249 249 254 261 260 264 268 268 264 260 269 282 293 291 298 298 301 308 318 328 340 348 353 353 353 351 342 311 258 214 203 203 207 207 207 208 208 210 215 217 218 221
249 240 237 239 240 248 252 260 266 266 264 262 267 277 287 295 306 309 299 295 302 324 332 340 345 352 353 349 336 304 272 233 216 209 208 208 208 209 211 213 216 219 222 226
254 242 233 238 240 246 250 256 259 260 261 261 264 272 280 292 302 312 305 293 295 318 331 329 332 344 350 345 332 308 281 250 221 211 210 211 209 211 215 217 220 224 227 232
251 244 226 226 233 241 245 252 258 259 261 263 265 267 271 283 292 300 307 300 295 315 316 316 331 337 342 339 328 307 287 266 240 230 221 221 217 217 217 219 224 227 230 234
242 243 233 226 231 238 243 247 252 256 259 260 263 266 269 278 283 286 294 300 303 310 305 307 320 324 333 334 323 302 291 279 260 242 231 227 225 225 225 223 225 228 231 235
235 240 239 231 231 235 240 246 251 256 259 259 260 263 265 272 273 277 284 288 295 302 297 303 307 313 317 323 324 306 287 282 270 255 242 235 234 233 231 229 229 233 234 236
231 237 239 238 236 237 240 243 248 253 257 258 260 264 262 266 272 275 279 286 292 296 295 297 300 302 308 304 311 309 290 279 274 261 252 245 240 241 240 238 236 240 240 241
230 234 238 239 239 240 242 244 247 251 255 257 259 261 262 266 271 276 279 283 289 291 291 293 294 296 300 296 293 296 293 289 282 264 256 249 247 249 245 242 243 245 248 247
232 235 239 241 242 243 244 247 250 250 253 257 259 260 263 269 272 274 279 284 288 288 287 288 290 291 292 290 285 283 280 279 275 265 257 255 257 251 248 247 249 253 254 257
235 238 241 243 245 245 245 247 250 252 253 257 260 262 264 264 267 272 277 281 284 284 284 286 285 283 282 278 273 272 271 270 271 266 261 258 258 256 255 255 257 261 262 263
236 240 243 244 245 245 248 248 249 252 254 257 260 261 263 262 267 271 273 276 280 282 283 282 280 277 275 270 266 264 265 266 267 266 267 266 265 264 262 261 263 265 267 267
236 240 244 246 246 247 247 247 247 251 255 257 259 261 262 265 267 270 274 276 278 279 281 280 276 275 270 266 263 259 260 261 262 262 263 265 267 268 267 265 265 266 268 270
235 239 242 245 247 248 246 245 247 249 253 257 259 260 264 265 268 271 275 277 277 277 277 276 274 270 267 264 262 258 256 256 258 260 261 263 267 268 265 265 267 269 273 274
233 236 240 243 245 246 244 242 245 249 254 257 259 260 263 266 269 272 273 275 276 276 275 274 268 264 262 262 258 256 254 255 255 257 259 263 265 267 269 271 270 272 275 276
232 234 237 240 243 245 246 249 249 251 253 256 259 261 263 265 267 269 271 272 273 273 272 270 267 263 260 259 257 256 255 255 255 255 259 262 264 268 272 272 271 273 276 277
231 232 235 239 244 247 248 248 249 250 253 257 261 263 263 262 264 267 268 270 270 270 269 267 265 263 261 260 257 260 258 256 257 259 261 263 265 269 271 271 272 275 277 278
234 236 238 241 243 246 249 250 250 252 256 259 262 264 266 265 265 266 266 267 268 267 267 265 262 261 260 258 257 258 257 258 259 260 262 262 264 269 270 272 274 276 279 280
238 238 239 241 243 246 250 251 252 254 258 261 264 267 268 267 266 266 266 267 267 267 267 265 262 259 257 257 255 256 255 256 257 259 261 264 263 265 269 271 275 278 280 282
236 237 238 240 242 245 248 251 255 258 261 265 267 268 269 268 266 266 266 267 268 267 266 263 260 257 256 254 255 255 254 256 257 258 259 262 263 266 271 274 276 277 279 282
Height
5886 5888 5887 5886 5885 5884 5883 5882 5882 5882 5881 5880 5879 5879 5878 5876 5875 5874 5871 5868 5865 5861 5857 5854 5850 5847 5845 5843 5843 5843 5844 5845 5847 5849 5852 5855 5858 5861 5864 5867 5869 5871 5873 5875
5883 5884 5882 5881 5881 5881 5880 5879 5879 5879 5879 5878 5876 5876 5875 5874 5873 5872 5869 5867 5864 5860 5857 5853 5850 5847 5844 5842 5841 5842 5842 5843 5845 5848 5850 5853 5855 5858 5861 5864 5866 5869 5871 5873
5878 5879 5877 5877 5877 5877 5876 5876 5876 5876 5875 5875 5874 5873 5873 5873 5872 5870 5868 5865 5862 5859 5856 5853 5849 5846 5844 5842 5840 5840 5841 5842 5844 5846 5847 5850 5853 5856 5859 5861 5864 5866 5869 5870
5872 5873 5872 5872 5872 5872 5872 5872 5872 5872 5872 5872 5872 5870 5871 5870 5869 5868 5866 5863 5860 5857 5854 5851 5848 5845 5843 5841 5839 5839 5840 5841 5842 5844 5845 5847 5850 5853 5856 5859 5861 5864 5866 5868
5868 5867 5867 5868 5868 5867 5867 5868 5868 5868 5868 5868 5868 5868 5869 5867 5867 5866 5864 5861 5858 5855 5853 5850 5847 5844 5842 5840 5839 5838 5838 5839 5841 5842 5843 5845 5848 5851 5853 5856 5859 5861 5864 5866
5862 5862 5862 5863 5863 5863 5863 5864 5864 5864 5864 5865 5865 5865 5865 5864 5863 5862 5860 5858 5856 5853 5850 5848 5846 5843 5841 5839 5838 5837 5837 5838 5839 5840 5841 5843 5846 5848 5851 5853 5856 5859 5861 5863
5856 5857 5857 5858 5859 5859 5859 5860 5860 5860 5861 5862 5862 5861 5861 5859 5859 5858 5856 5854 5853 5851 5848 5847 5845 5843 5840 5838 5837 5836 5836 5837 5837 5838 5840 5842 5844 5846 5848 5851 5853 5856 5858 5861
5849 5852 5853 5853 5854 5855 5855 5856 5857 5857 5857 5858 5858 5857 5857 5856 5854 5853 5852 5851 5850 5849 5847 5845 5844 5842 5839 5838 5837 5836 5835 5835 5836 5837 5839 5840 5842 5844 5846 5848 5851 5853 5855 5857
5844 5847 5848 5848 5849 5850 5851 5851 5852 5853 5853 5853 5854 5854 5853 5852 5850 5849 5849 5849 5848 5847 5844 5844 5843 5841 5839 5838 5836 5836 5835 5834 5835 5836 5837 5838 5840 5842 5844 5846 5848 5850 5853 5854
5838 5841 5844 5844 5845 5845 5847 5848 5848 5848 5848 5849 5850 5850 5850 5848 5847 5847 5846 5846 5846 5845 5843 5843 5842 5840 5839 5837 5836 5835 5834 5834 5834 5834 5836 5837 5838 5839 5841 5844 5846 5848 5850 5851
5832 5835 5838 5839 5840 5841 5842 5843 5843 5844 5844 5845 5845 5847 5846 5845 5844 5844 5843 5842 5842 5842 5842 5841 5839 5839 5838 5837 5835 5834 5834 5833 5833 5833 5834 5835 5837 5838 5839 5841 5842 5844 5846 5848
5825 5828 5831 5834 5836 5836 5837 5838 5839 5840 5840 5840 5840 5844 5841 5840 5840 5840 5840 5840 5840 5840 5839 5839 5838 5838 5837 5836 5834 5833 5833 5832 5832 5832 5833 5834 5835 5836 5837 5838 5840 5841 5842 5844
5819 5821 5824 5828 5832 5833 5832 5833 5834 5835 5835 5835 5836 5839 5836 5836 5836 5837 5837 5837 5837 5837 5837 5837 5837 5836 5835 5834 5833 5831 5831 5831 5830 5830 5830 5831 5832 5834 5834 5835 5837 5838 5839 5840
5812 5814 5818 5822 5825 5826 5827 5828 5829 5829 5829 5830 5830 5831 5831 5831 5831 5833 5833 5833 5834 5834 5834 5834 5834 5833 5833 5832 5831 5830 5829 5829 5828 5827 5828 5829 5830 5831 5832 5833 5833 5834 5835 5836
5806 5808 5810 5814 5817 5819 5821 5822 5823 5824 5824 5824 5824 5824 5825 5826 5827 5828 5829 5830 5830 5830 5831 5831 5830 5829 5829 5829 5828 5827 5827 5826 5826 5825 5826 5826 5827 5828 5829 5829 5830 5831 5832 5832
5798 5801 5804 5807 5811 5812 5814 5816 5817 5817 5817 5817 5818 5819 5820 5821 5822 5823 5823 5824 5825 5825 5826 5826 5826 5825 5824 5824 5823 5823 5823 5824 5823 5824 5824 5824 5824 5824 5825 5826 5827 5827 5828 5828
5791 5794 5798 5801 5804 5806 5808 5809 5809 5809 5810 5811 5812 5814 5815 5816 5817 5818 5818 5818 5819 5820 5820 5820 5820 5819 5819 5819 5820 5819 5820 5821 5821 5820 5820 5820 5821 5821 5822 5823 5823 5824 5824 5824
5783 5786 5789 5793 5797 5798 5803 5801 5801 5802 5802 5804 5805 5807 5808 5809 5811 5811 5812 5812 5813 5813 5814 5814 5813 5813 5813 5814 5814 5815 5816 5816 5817 5817 5817 5817 5818 5818 5818 5818 5819 5819 5819 5820
5774 5778 5781 5784 5786 5790 5792 5792 5794 5795 5795 5797 5798 5800 5801 5802 5803 5804 5804 5805 5806 5806 5806 5806 5806 5806 5807 5808 5808 5809 5810 5811 5811 5812 5813 5813 5813 5814 5813 5813 5813 5814 5814 5814
5765 5769 5773 5775 5778 5780 5784 5786 5786 5788 5787 5790 5791 5793 5794 5794 5795 5797 5796 5797 5797 5797 5798 5798 5798 5798 5800 5801 5802 5803 5804 5804 5805 5806 5807 5808 5808 5808 5808 5808 5808 5808 5808 5807
5757 5760 5763 5766 5768 5771 5774 5777 5779 5781 5781 5783 5784 5785 5786 5786 5788 5789 5788 5788 5788 5788 5789 5789 5790 5791 5792 5793 5794 5796 5797 5798 5799 5800 5801 5801 5802 5802 5802 5801 5801 5801 5801 5801
5748 5751 5755 5757 5760 5765 5766 5769 5771 5772 5773 5774 5775 5776 5777 5777 5778 5779 5779 5780 5779 5779 5780 5781 5782 5783 5783 5784 5786 5788 5789 5790 5791 5792 5793 5794 5795 5795 5795 5794 5794 5794 5794 5793
5740 5744 5747 5750 5754 5756 5758 5760 5762 5763 5765 5766 5767 5768 5768 5769 5769 5770 5770 5771 5771 5771 5771 5773 5774 5775 5776 5777 5778 5780 5781 5783 5784 5785 5786 5787 5788 5788 5788 5787 5787 5787 5786 5785
5733 5736 5740 5742 5745 5747 5749 5751 5753 5755 5756 5757 5759 5759 5759 5759 5760 5761 5761 5762 5763 5763 5763 5764 5765 5767 5768 5769 5770 5772 5774 5776 5777 5778 5779 5780 5781 5780 5780 5780 5779 5779 5778 5777
5726 5729 5732 5734 5737 5739 5741 5743 5745 5747 5748 5749 5750 5750 5751 5752 5752 5752 5753 5753 5754 5754 5755 5755 5757 5758 5760 5761 5762 5764 5766 5768 5769 5770 5772 5772 5772 5773 5773 5773 5772 5772 5771 5769
5719 5722 5725 5728 5730 5732 5734 5735 5737 5739 5740 5741 5741 5742 5742 5743 5744 5744 5744 5745 5746 5746 5747 5747 5749 5750 5752 5754 5755 5757 5759 5761 5762 5763 5764 5764 5765 5766 5766 5765 5765 5764 5763 5761